This demonstration page uses our WeatherBlox Daily Observations layout. Learn more.

Hourly Observations for September 17, 2015

Temp ( °F °C ) Dew Point ( °F °C ) Humidity (%) Winds ( mph kmh ) Pressure ( in mb ) Visibility ( mi km ) Precip ( " mm )
12:15 am 00:15 Clear 80 26.5 61 16.1 53 53 S 14 22 29.65 1004 10 16.0934 0 0
12:35 am 00:35 Clear 79 26.3 61 16 53 53 S 13 20 29.65 1004 10 16.0934 0 0
12:55 am 00:55 Clear 79 26 60 15.8 53 53 S 14 22 29.65 1004 10 16.0934 0 0
1:15 am 01:15 Clear 79 25.9 60 15.5 53 53 S 16 26 29.62 1003 10 16.0934 0 0
1:35 am 01:35 Clear 78 25.7 60 15.5 53 53 S 14 22 29.62 1003 10 16.0934 0 0
1:55 am 01:55 Clear 78 25.5 60 15.5 54 54 S 15 24 29.62 1003 10 16.0934 0 0
2:15 am 02:15 Clear 78 25.3 60 15.5 55 55 S 14 22 29.62 1003 10 16.0934 0 0
2:35 am 02:35 Clear 77 24.8 60 15.5 56 56 S 12 19 29.62 1003 10 16.0934 0 0
2:55 am 02:55 Clear 76 24.5 60 15.6 58 58 S 12 19 29.62 1003 10 16.0934 0 0
3:15 am 03:15 Clear 75 23.9 60 15.6 60 60 S 9 15 29.59 1002 10 16.0934 0 0
3:35 am 03:35 Clear 74 23.6 60 15.6 61 61 S 9 15 29.59 1002 10 16.0934 0 0
3:55 am 03:55 Clear 74 23.1 60 15.7 63 63 S 9 15 29.62 1003 10 16.0934 0 0
4:15 am 04:15 Clear 73 22.7 60 15.7 65 65 S 7 11 29.62 1003 10 16.0934 0 0
4:35 am 04:35 Clear 73 22.5 60 15.6 65 65 S 9 15 29.62 1003 10 16.0934 0 0
4:55 am 04:55 Clear 72 22.1 60 15.6 67 67 S 7 11 29.62 1003 10 16.0934 0 0
5:15 am 05:15 Clear 71 21.7 60 15.4 68 68 SSW 8 13 29.62 1003 10 16.0934 0 0
5:35 am 05:35 Clear 69 20.7 59 15.2 71 71 WNW 5 7 29.65 1004 10 16.0934 0 0
5:55 am 05:55 Clear 67 19.3 59 15.1 77 77 N 3 6 29.68 1005 10 16.0934 0 0
6:15 am 06:15 Clear 66 18.9 60 15.4 80 80 WSW 6 9 29.68 1005 10 16.0934 0 0
6:35 am 06:35 Clear 64 17.5 59 15.1 86 86 Calm 29.68 1005 10 16.0934 0 0
6:55 am 06:55 Clear 62 16.7 57 13.9 84 84 Calm 29.71 1006 10 16.0934 0 0
7:15 am 07:15 Clear 59 15.2 56 13.4 89 89 N 5 7 29.71 1006 10 16.0934 0 0
7:35 am 07:35 Sunny 61 16 58 14.3 90 90 Calm 29.74 1007 10 16.0934 0 0
7:55 am 07:55 Sunny 63 17 59 15.1 89 89 WNW 6 9 29.74 1007 10 16.0934 0 0
8:15 am 08:15 Sunny 66 18.8 61 16 84 84 N 8 13 29.71 1006 10 16.0934 0 0
8:35 am 08:35 Sunny 68 20.1 61 15.9 77 77 N 14 22 29.71 1006 10 16.0934 0 0
8:55 am 08:55 Sunny 69 20.8 58 14.4 67 67 N 15 24 29.68 1005 10 16.0934 0 0
9:15 am 09:15 Sunny 70 21.1 56 13.2 61 61 N 17 28 29.68 1005 10 16.0934 0 0
9:35 am 09:35 Sunny 71 21.5 55 12.8 58 58 N 18 30 29.68 1005 10 16.0934 0 0
9:55 am 09:55 Sunny 71 21.5 53 11.6 53 53 N 21 33 29.71 1006 10 16.0934 0 0
10:15 am 10:15 Sunny 72 22.2 53 11.5 51 51 N 18 30 29.71 1006 10 16.0934 0 0
10:35 am 10:35 Sunny 73 22.8 52 11 47 47 N 20 31 29.71 1006 10 16.0934 0 0
10:55 am 10:55 Sunny 75 23.7 52 11.2 45 45 N 18 30 29.71 1006 10 16.0934 0 0
11:15 am 11:15 Sunny 76 24.4 53 11.5 44 44 N 15 24 29.71 1006 10 16.0934 0 0
11:35 am 11:35 Sunny 77 25.1 53 11.5 43 43 NNE 18 30 29.74 1007 10 16.0934 0 0
11:55 am 11:55 Sunny 78 25.3 52 11.2 41 41 N 16 26 29.74 1007 10 16.0934 0 0
12:15 pm 12:15 Sunny 77 25.1 52 11 41 41 N 15 24 29.74 1007 10 16.0934 0 0
12:35 pm 12:35 Sunny 79 25.9 51 10.6 38 38 N 12 19 29.74 1007 10 16.0934 0 0
12:55 pm 12:55 Sunny 79 26.1 51 10.3 37 37 N 18 30 29.74 1007 10 16.0934 0 0
1:15 pm 13:15 Sunny 80 26.4 50 9.8 35 35 N 10 17 29.74 1007 10 16.0934 0 0
1:35 pm 13:35 Sunny 81 27.4 49 9.7 33 33 N 16 26 29.74 1007 10 16.0934 0 0
1:55 pm 13:55 Sunny 82 27.6 48 9 31 31 N 15 24 29.74 1007 10 16.0934 0 0
2:15 pm 14:15 Sunny 82 27.6 48 9.1 31 31 N 21 33 29.74 1007 10 16.0934 0 0
2:35 pm 14:35 Sunny 83 28.1 49 9.5 31 31 N 8 13 29.74 1007 10 16.0934 0 0
2:55 pm 14:55 Sunny 82 27.6 48 9 31 31 N 16 26 29.74 1007 10 16.0934 0 0
3:15 pm 15:15 Sunny 82 27.9 49 9.3 31 31 N 13 20 29.74 1007 10 16.0934 0.03 0.762
3:35 pm 15:35 Sunny 83 28.1 49 9.3 31 31 NNE 13 20 29.74 1007 10 16.0934 0.03 0.762
3:55 pm 15:55 Sunny 83 28.2 47 8.6 29 29 N 12 19 29.74 1007 10 16.0934 0.03 0.762
4:15 pm 16:15 Sunny 83 28.4 48 8.9 29 29 N 13 20 29.74 1007 10 16.0934 0 0
4:35 pm 16:35 Sunny 83 28.6 47 8.3 28 28 N 9 15 29.74 1007 10 16.0934 0 0
4:55 pm 16:55 Sunny 83 28.5 47 8.3 28 28 N 13 20 29.74 1007 10 16.0934 0 0
5:15 pm 17:15 Sunny 83 28.4 47 8.3 28 28 N 13 20 29.74 1007 10 16.0934 0 0
5:35 pm 17:35 Sunny 83 28.3 47 8.1 28 28 NNE 12 19 29.74 1007 10 16.0934 0 0
5:55 pm 17:55 Sunny 82 28 47 8.3 29 29 NNE 14 22 29.74 1007 10 16.0934 0 0
6:15 pm 18:15 Sunny 81 27.3 46 8 30 30 NE 12 19 29.74 1007 10 16.0934 0 0
6:35 pm 18:35 Sunny 80 26.7 46 7.5 30 30 NE 12 19 29.74 1007 10 16.0934 0 0
6:55 pm 18:55 Sunny 79 26 47 8.3 33 33 NNE 9 15 29.74 1007 10 16.0934 0 0
7:15 pm 19:15 Sunny 76 24.6 48 8.9 37 37 NE 9 15 29.77 1008 10 16.0934 0 0
7:35 pm 19:35 Sunny 74 23.1 49 9.3 42 42 NNE 7 11 29.8 1009 10 16.0934 0 0
7:55 pm 19:55 Clear 71 21.4 49 9.5 47 47 NNE 9 15 29.83 1010 10 16.0934 0 0
8:15 pm 20:15 Clear 68 19.8 50 10 53 53 NNE 8 13 29.83 1010 10 16.0934 0 0
8:35 pm 20:35 Clear 65 18.6 50 10.2 58 58 NE 8 13 29.83 1010 10 16.0934 0 0
8:55 pm 20:55 Clear 65 18.5 49 9.7 57 57 NNE 9 15 29.83 1010 10 16.0934 0 0
9:15 pm 21:15 Clear 65 18.1 49 9.5 57 57 NNE 8 13 29.85 1011 10 16.0934 0 0
9:35 pm 21:35 Clear 63 17.2 49 9.6 61 61 NNE 9 15 29.85 1011 10 16.0934 0 0
9:55 pm 21:55 Clear 62 16.9 49 9.5 62 62 NNE 8 13 29.85 1011 10 16.0934 0 0
10:15 pm 22:15 Clear 61 16 49 9.4 65 65 NNE 8 13 29.88 1012 10 16.0934 0 0
10:35 pm 22:35 Clear 60 15.5 49 9.5 68 68 NNE 6 9 29.88 1012 10 16.0934 0 0
10:55 pm 22:55 Clear 58 14.5 49 9.3 71 71 NE 6 9 29.91 1013 10 16.0934 0 0
11:15 pm 23:15 Clear 58 14.5 49 9.5 72 72 NE 9 15 29.88 1012 10 16.0934 0 0
11:35 pm 23:35 Clear 60 15.7 49 9.4 66 66 NE 8 13 29.88 1012 10 16.0934 0 0
11:55 pm 23:55 Clear 60 15.7 49 9.4 66 66 ENE 8 13 29.88 1012 10 16.0934 0 0

Powered by AerisWeather